User: anonymous   Login
Location: Castro Valley
(37.6940°N, 122.0850°W)
Time: 19:18:42
(UTC-07:00)
Language:

PANSAT - Orbit

View from above orbital plane
View from above orbital plane
View from above satellite
View from above satellite

Ground track
Ground track

The orbit data is extracted from the following two-line orbital elements,

1 25520U 98064B   17146.35310386 +.00000740 +00000-0 +18207-4 0  9992
2 25520 028.4572 133.0773 0005354 119.8297 240.2831 15.28359824030631
Epoch (UTC): 26 May 2017 08:28:28
Eccentricity: 0.0005354
inclination: 28.4572°
perigee height: 477 km
apogee height: 484 km
right ascension of ascending node: 133.0773°
argument of perigee: 119.8297°
revolutions per day: 15.28359824
mean anomaly at epoch: 240.2831°
orbit number at epoch: 3063

The dashed part of the orbit path shows where the satellite is in the earth's shadow,  

DLR